SHIYAN-30 03

Last updated on Sun Apr 12 2026 00:02:06 GMT+0000 (Coordinated Universal Time)

1 68139U 26048A 26101.76796463 .00001905 00000+0 18789-3 0 9995 2 68139 35.0004 305.8429 0002799 145.7734 214.3152 14.91811611 4443
UTC large
Height (km)
Speed (km/s)
/
Latitude / Longitude
Inclination (degrees)
Orbital Period (minutes)
Azimuth
Elevation
Range (km)
Doppler Factor

Next 0 passes for location: London (51.5072 / 0.1276)

Sorry there are no passes over London.
SHIYAN-30 03